[[{"header":{"parameterUnit":"m.s-1","parameterCategory":1,"la1":30.2991,"la2":30.254,"lo1":-89.0895,"lo2":-89.0444,"dy":0.0017,"dx":0.0017,"nx":28,"ny":28,"refTime":"2023-09-15T21:00:00:Z","depth":0,"parameterNumber":2,"parameterNumberName":"U-component_of_WINDS"},"data":[0,0,0,0,0,0,0,0,0,0,0,0,0,0,0,0,0,0,0,0,0,0,0,0,0,0,0,0,0,0,0,0,0,0,0,0,0,0,0,0,0,0,0,0,0,0,0,0,0,0,0,0,0,0,0,0,0,0,-0.6015,-0.6015,0,-0.5985,-0.5985,-0.5985,-0.5943,-0.5942,-0.5942,-0.5941,-0.591,-0.591,-0.5909,0,0,0,0,0,0,0,0,0,0,0,0,0,-0.6036,-0.6036,-0.6015,-0.6015,-0.6014,-0.5985,-0.5985,-0.5985,-0.5943,-0.5942,-0.5942,-0.5941,-0.591,-0.591,-0.5909,0,0,0,0,0,0,0,0,0,0,0,0,0,-0.6018,-0.6036,-0.6015,-0.599,-0.5988,-0.5985,-0.5985,-0.5984,-0.5943,-0.5942,-0.5941,-0.594,-0.591,-0.591,-0.5909,-0.5929,0,0,-0.5909,-0.5908,0,0,0,0,0,0,0,0,-0.602,-0.6018,-0.5994,-0.5992,-0.5989,-0.5967,-0.5981,-0.5966,-0.5944,-0.596,-0.5941,-0.594,-0.593,-0.5928,-0.5924,-0.5927,-0.5926,-0.5909,-0.5908,-0.5908,-0.5908,0,0,0,0,0,0,0,-0.6021,-0.6019,-0.6003,-0.5994,-0.5991,-0.598,-0.5977,-0.5978,-0.5951,-0.5959,-0.5956,-0.5953,-0.5928,-0.5925,-0.5923,-0.5926,-0.5909,-0.5908,-0.5908,-0.5908,-0.5943,-0.5944,0,0,0,0,0,0,-0.6026,-0.602,-0.6004,-0.6002,-0.6002,-0.5981,-0.5977,-0.5975,-0.5951,-0.5946,-0.5954,-0.5951,-0.5926,-0.5924,-0.5922,-0.5942,-0.5908,-0.5908,-0.5908,-0.5942,-0.5943,-0.5944,0,0,0,0,0,0,-0.6026,-0.6025,-0.6005,-0.601,-0.6007,-0.5982,-0.598,-0.5975,-0.5972,-0.5947,-0.5942,-0.5955,-0.5925,-0.5922,-0.5927,-0.5941,-0.5908,-0.5908,-0.594,-0.5942,-0.5944,-0.5984,0,0,0,0,0,0,-0.6027,-0.6025,-0.6032,-0.6011,-0.6007,-0.6011,-0.5981,-0.5975,-0.5971,-0.5967,-0.5947,-0.5943,-0.5924,-0.5928,-0.5927,-0.594,-0.5907,-0.5939,-0.5941,-0.5943,-0.5981,-0.5987,-0.5991,0,0,0,0,0,-0.6028,-0.6045,-0.6033,-0.6031,-0.6015,-0.6012,-0.601,-0.5988,-0.5973,-0.5979,-0.5964,-0.5944,-0.594,-0.5929,-0.5928,-0.594,-0.5938,-0.5941,-0.5943,-0.5979,-0.5986,-0.5991,0,0,0,0,0,0,-0.6068,-0.6041,-0.6028,-0.6038,-0.6028,-0.6005,-0.6013,-0.5996,-0.5989,-0.5986,-0.5958,-0.5954,-0.5962,-0.5952,-0.594,-0.5958,-0.5936,-0.5938,-0.5964,-0.597,-0.5975,-0.5976,-0.5907,0,0,0,0,0,-0.6078,-0.6078,-0.6055,-0.6066,-0.6062,-0.6039,-0.6036,-0.602,-0.6008,-0.6003,-0.5988,-0.5977,-0.5973,-0.5971,-0.5967,-0.598,-0.5975,-0.5989,-0.5994,-0.5998,-0.6,-0.6005,-0.6011,-0.5952,-0.5952,-0.5952,0,0,-0.6098,-0.6084,-0.6085,-0.6074,-0.6064,-0.6064,-0.6035,-0.6036,-0.6036,-0.6004,-0.6007,-0.5996,-0.5982,-0.5991,-0.5994,-0.5983,-0.6015,-0.6001,-0.6005,-0.6004,-0.6008,-0.6014,-0.6019,-0.5954,-0.5954,-0.5953,0,0,-0.6135,-0.6125,-0.6133,-0.6124,-0.6109,-0.6094,-0.6096,-0.6077,-0.6068,-0.6071,-0.6047,-0.6046,-0.6041,-0.6031,-0.6026,-0.6061,-0.6042,-0.6061,-0.6086,-0.6092,-0.6097,-0.6101,-0.6112,-0.6116,-0.6063,-0.6063,-0.6063,0,-0.6162,-0.6161,-0.6139,-0.6142,-0.6137,-0.6109,-0.6117,-0.6109,-0.6094,-0.6091,-0.6079,-0.6071,-0.606,-0.6066,-0.6075,-0.6072,-0.6073,-0.6062,-0.6098,-0.6102,-0.6105,-0.6115,-0.612,-0.6065,-0.6065,-0.6065,-0.6064,0,-0.6195,-0.6195,-0.6203,-0.6189,-0.6186,-0.6191,-0.617,-0.6169,-0.6154,-0.614,-0.6144,-0.6129,-0.6121,-0.6122,-0.6107,-0.6126,-0.6119,-0.6103,-0.608,-0.6113,-0.6122,-0.6126,-0.6068,-0.6068,-0.6067,-0.6066,0,0,-0.6254,-0.6229,-0.6232,-0.6225,-0.6208,-0.6207,-0.6212,-0.6204,-0.6204,-0.6195,-0.6197,-0.6194,-0.6179,-0.6173,-0.6157,-0.6162,-0.619,-0.6145,-0.6144,-0.6152,-0.6209,-0.622,-0.6225,-0.6178,-0.6179,-0.6179,-0.6209,0,-0.6286,-0.6292,-0.6272,-0.6282,-0.6282,-0.6256,-0.626,-0.625,-0.6237,-0.6235,-0.6221,-0.6219,-0.62,-0.6196,-0.62,-0.6185,-0.62,-0.6183,-0.6178,-0.6179,-0.6181,-0.623,-0.6241,-0.627,-0.6213,-0.6214,-0.6214,0,-0.6324,-0.6317,-0.6327,-0.631,-0.6309,-0.6313,-0.6304,-0.6303,-0.6291,-0.6281,-0.6275,-0.6257,-0.626,-0.624,-0.6243,-0.6232,-0.6229,-0.6222,-0.6222,-0.6219,-0.6197,-0.6226,-0.6279,-0.6283,-0.622,-0.6219,-0.6219,0,-0.6364,-0.6358,-0.6363,-0.6358,-0.6338,-0.6341,-0.6333,-0.632,-0.6317,-0.631,-0.6307,-0.6301,-0.6297,-0.6292,-0.6273,-0.626,-0.6278,-0.6256,-0.6269,-0.6269,-0.6272,-0.6272,-0.6323,-0.6274,-0.6274,-0.6274,-0.6274,0,-0.64,-0.6407,-0.638,-0.6384,-0.6391,-0.6369,-0.6377,-0.6366,-0.6355,-0.6355,-0.6333,-0.6334,-0.6309,-0.6307,-0.6293,-0.6297,-0.6296,-0.6287,-0.6283,-0.6288,-0.6289,-0.6285,-0.6281,-0.6275,-0.6275,-0.6274,-0.6274,0,-0.6445,-0.6428,-0.6431,-0.6413,-0.6408,-0.6414,-0.6398,-0.64,-0.6387,-0.6388,-0.6387,-0.6366,-0.6363,-0.6344,-0.6336,-0.6326,-0.6335,-0.6328,-0.6339,-0.6336,-0.6349,-0.6347,-0.6398,-0.6403,-0.6352,-0.6353,-0.6353,0,-0.6469,-0.6473,-0.6456,-0.6454,-0.6447,-0.6446,-0.6443,-0.6422,-0.6419,-0.6407,-0.641,-0.6405,-0.64,-0.6396,-0.638,-0.6374,-0.6365,-0.6383,-0.6364,-0.6369,-0.6363,-0.6362,-0.6362,-0.6387,-0.6387,-0.6388,-0.6388,0,-0.6512,-0.6503,-0.6499,-0.6493,-0.649,-0.6484,-0.6476,-0.6476,-0.6453,-0.6452,-0.6448,-0.6445,-0.6437,-0.6432,-0.6424,-0.6415,-0.6397,-0.6395,-0.6397,-0.6402,-0.6407,-0.6403,-0.6348,-0.6393,-0.6393,-0.6392,-0.6392,-0.6392,-0.6545,-0.6548,-0.6536,-0.6533,-0.6525,-0.6519,-0.652,-0.6508,-0.6504,-0.6497,-0.6485,-0.6483,-0.6472,-0.6458,-0.6451,-0.6449,-0.6439,-0.6443,-0.6444,-0.6445,-0.6447,-0.641,-0.6448,-0.6448,-0.6448,-0.6447,-0.6447,0,-0.6586,-0.6577,-0.6574,-0.6565,-0.6562,-0.6548,-0.6539,-0.6538,-0.6536,-0.6527,-0.6523,-0.6519,-0.6515,-0.6499,-0.6493,-0.6494,-0.6486,-0.6493,-0.6492,-0.649,-0.6457,-0.6455,-0.65,-0.65,-0.65,-0.65,-0.65,-0.65,-0.6606,-0.661,-0.6601,-0.6601,-0.6592,-0.659,-0.6586,-0.658,-0.6573,-0.657,-0.6566,-0.6556,-0.6545,-0.6538,-0.6533,-0.6528,-0.6526,-0.6536,-0.6528,-0.6497,-0.6492,-0.6487,-0.6485,-0.6536,-0.6536,-0.6561,-0.6562,-0.6562]},{"header":{"parameterUnit":"m.s-1","parameterCategory":1,"la1":30.2991,"la2":30.254,"lo1":-89.0895,"lo2":-89.0444,"dy":0.0017,"dx":0.0017,"nx":28,"ny":28,"refTime":"2023-09-15T21:00:00:Z","depth":0,"parameterNumber":3,"parameterNumberName":"V-component_of_WINDS"},"data":[0,0,0,0,0,0,0,0,0,0,0,0,0,0,0,0,0,0,0,0,0,0,0,0,0,0,0,0,0,0,0,0,0,0,0,0,0,0,0,0,0,0,0,0,0,0,0,0,0,0,0,0,0,0,0,0,0,0,1.9288,1.9287,0,1.9248,1.9248,1.9247,1.9261,1.9262,1.9263,1.9264,1.9218,1.9216,1.9214,0,0,0,0,0,0,0,0,0,0,0,0,0,1.9369,1.9368,1.9288,1.9287,1.9287,1.9248,1.9248,1.9247,1.9261,1.9262,1.9263,1.9265,1.9218,1.9216,1.9213,0,0,0,0,0,0,0,0,0,0,0,0,0,1.9332,1.9367,1.9288,1.9289,1.9289,1.9248,1.9248,1.9247,1.9261,1.9262,1.9264,1.9265,1.9219,1.9216,1.9213,1.9167,0,0,1.9204,1.9202,0,0,0,0,0,0,0,0,1.9334,1.9329,1.9289,1.9289,1.9289,1.9261,1.926,1.922,1.9261,1.9271,1.9264,1.9266,1.9231,1.9227,1.9216,1.9165,1.9163,1.9203,1.9201,1.92,1.9199,0,0,0,0,0,0,0,1.9337,1.9331,1.9272,1.9289,1.9288,1.929,1.9286,1.9252,1.9244,1.9271,1.9272,1.9267,1.9231,1.9219,1.9215,1.9162,1.9203,1.9201,1.9199,1.9198,1.9069,1.9067,0,0,0,0,0,0,1.934,1.9333,1.9273,1.9271,1.9315,1.9287,1.9283,1.9269,1.9244,1.9242,1.9266,1.9268,1.9224,1.9219,1.9214,1.9157,1.92,1.9197,1.9195,1.907,1.9069,1.9067,0,0,0,0,0,0,1.9342,1.9335,1.9275,1.9302,1.9295,1.9285,1.9268,1.9267,1.9256,1.9241,1.9239,1.9256,1.9225,1.9218,1.9179,1.9155,1.9196,1.9193,1.9072,1.907,1.9068,1.9043,0,0,0,0,0,0,1.9344,1.9335,1.9319,1.9302,1.9293,1.9242,1.9267,1.9265,1.9251,1.9253,1.9231,1.9229,1.9225,1.9183,1.9175,1.9152,1.9191,1.9074,1.9071,1.9068,1.9046,1.904,1.9035,0,0,0,0,0,1.9347,1.9313,1.9318,1.9311,1.9273,1.9241,1.9235,1.9234,1.9249,1.9231,1.9222,1.9229,1.916,1.9179,1.917,1.9145,1.9076,1.9072,1.9069,1.9048,1.9041,1.9035,0,0,0,0,0,0,1.9326,1.931,1.9316,1.9276,1.926,1.9243,1.9221,1.9227,1.9205,1.9207,1.9205,1.92,1.9159,1.9148,1.917,1.9098,1.9119,1.9114,1.9107,1.91,1.9095,1.9097,1.9188,0,0,0,0,0,1.9317,1.9294,1.9281,1.9246,1.9238,1.9231,1.9217,1.9217,1.92,1.9192,1.918,1.9161,1.9134,1.9117,1.9092,1.9045,1.9039,1.9023,1.9018,1.9014,1.9008,1.8981,1.8973,1.9055,1.9055,1.9056,0,0,1.9297,1.9286,1.9271,1.9241,1.9229,1.9203,1.9225,1.9197,1.9177,1.9187,1.9149,1.914,1.9118,1.9074,1.9054,1.9064,1.8985,1.9009,1.9006,1.9003,1.8976,1.8969,1.8962,1.9053,1.9054,1.9054,0,0,1.9247,1.9237,1.9207,1.9194,1.9176,1.9171,1.9164,1.9147,1.9141,1.9103,1.911,1.9086,1.9041,1.9025,1.9011,1.8955,1.896,1.8947,1.8918,1.8892,1.8885,1.8879,1.8857,1.885,1.8942,1.8942,1.8942,0,1.9224,1.9187,1.9189,1.9161,1.9147,1.9157,1.9125,1.9112,1.9085,1.9074,1.9087,1.903,1.9017,1.8968,1.8955,1.8944,1.8933,1.8949,1.8886,1.888,1.8875,1.8854,1.8846,1.8941,1.8941,1.8941,1.8941,0,1.9159,1.9133,1.911,1.9086,1.907,1.9039,1.9035,1.9018,1.902,1.9013,1.8974,1.8958,1.893,1.8919,1.892,1.887,1.8876,1.8888,1.8908,1.8865,1.8845,1.8838,1.8938,1.8939,1.8939,1.894,0,0,1.9093,1.9071,1.9063,1.9051,1.9032,1.9011,1.898,1.8954,1.8939,1.892,1.8893,1.8855,1.8865,1.8849,1.8848,1.8825,1.8779,1.8839,1.8838,1.8826,1.8721,1.8711,1.8702,1.8784,1.8782,1.8781,1.8722,0,1.904,1.8988,1.8989,1.894,1.8915,1.8925,1.8898,1.8882,1.8875,1.8852,1.8844,1.8816,1.8833,1.8823,1.8801,1.879,1.8758,1.8794,1.8755,1.8754,1.8759,1.8692,1.8682,1.8627,1.8715,1.8713,1.8712,0,1.8971,1.8952,1.8901,1.8885,1.8874,1.885,1.8826,1.8804,1.8785,1.8782,1.8764,1.8767,1.8734,1.8757,1.871,1.8734,1.8719,1.8711,1.8709,1.8703,1.8729,1.8682,1.861,1.86,1.8701,1.8702,1.8702,0,1.8926,1.8887,1.8851,1.8842,1.8822,1.8805,1.8795,1.8778,1.8762,1.874,1.873,1.8704,1.8689,1.8668,1.8663,1.8681,1.8614,1.8638,1.8608,1.8608,1.8592,1.8592,1.8513,1.8585,1.8585,1.8586,1.8586,0,1.8866,1.8833,1.8831,1.8808,1.8772,1.8773,1.8736,1.8728,1.8713,1.8687,1.8694,1.8669,1.8666,1.8639,1.8635,1.8595,1.8589,1.8583,1.8582,1.8582,1.8582,1.8569,1.8572,1.8583,1.8584,1.8584,1.8585,0,1.8808,1.8805,1.8766,1.8752,1.8747,1.872,1.8707,1.8684,1.8679,1.8646,1.8639,1.8629,1.8599,1.8593,1.8556,1.8553,1.8505,1.8509,1.8512,1.8511,1.8481,1.8483,1.8389,1.8376,1.8459,1.8459,1.8458,0,1.8768,1.8744,1.8727,1.8711,1.8702,1.8676,1.866,1.866,1.8643,1.862,1.8599,1.8571,1.8547,1.8498,1.8486,1.8458,1.8459,1.8429,1.8455,1.8455,1.8456,1.8457,1.8453,1.8423,1.8422,1.8421,1.842,0,1.8698,1.8698,1.8676,1.8653,1.8634,1.8616,1.8598,1.8584,1.8581,1.8561,1.8531,1.8513,1.8477,1.8447,1.8419,1.8407,1.8412,1.8413,1.8404,1.8402,1.8404,1.84,1.8496,1.8414,1.8415,1.8415,1.8416,1.8416,1.8647,1.8625,1.861,1.8584,1.8571,1.8555,1.8533,1.8525,1.8501,1.8472,1.8473,1.844,1.8421,1.8384,1.837,1.8343,1.8352,1.834,1.8336,1.8333,1.8329,1.841,1.8338,1.8338,1.8338,1.8338,1.8338,0,1.8575,1.8566,1.8543,1.8518,1.8498,1.8508,1.8488,1.847,1.8441,1.8424,1.8401,1.8366,1.8337,1.8324,1.8294,1.8275,1.8276,1.8267,1.8267,1.8264,1.8323,1.8333,1.8266,1.8266,1.8266,1.8266,1.8266,1.8266,1.8535,1.8498,1.8496,1.8452,1.8443,1.8412,1.84,1.8384,1.837,1.8331,1.8307,1.83,1.8283,1.8253,1.8226,1.8223,1.8211,1.82,1.8197,1.8252,1.826,1.8267,1.8275,1.8198,1.8197,1.8139,1.8139,1.8138]}]]